Temp
7 8 10 10 10 11 12 13 13 13 14 14 14 14 14 14 15 15 16 17 17 18 17 18 18 19 19 19 19 19 13 14 16 15 18 16 17 18 18 18 18 18 18 18 17
7 8 10 10 11 11 12 12 13 13 13 13 14 14 13 14 15 15 16 17 17 17 18 18 18 19 19 19 19 16 13 15 16 15 16 16 18 18 18 18 18 18 19 18 17
8 8 10 11 11 11 12 12 13 13 13 13 13 13 13 14 14 16 16 17 17 17 18 18 19 19 18 18 18 15 16 16 17 18 18 18 18 18 17 16 19 20 20 19 17
7 9 10 11 11 11 11 12 12 13 12 13 13 13 14 13 14 17 17 17 17 17 17 18 18 19 16 16 17 18 17 17 17 18 18 17 18 17 17 20 20 20 20 20 18
6 9 10 10 11 11 11 11 12 12 13 13 13 13 13 13 15 16 17 17 17 17 17 18 18 18 15 16 17 17 16 17 17 18 18 18 17 17 18 20 20 20 20 19 19
6 7 10 10 11 11 11 11 12 12 13 13 13 13 13 13 15 16 16 16 17 17 17 18 18 19 17 16 16 17 16 16 17 17 17 17 16 17 18 19 19 19 20 19 19
6 7 10 10 10 11 11 11 12 12 12 13 13 13 13 15 15 15 16 16 17 17 17 18 18 19 17 15 16 16 16 15 15 15 15 16 15 13 18 17 18 19 19 19 19
6 6 9 9 10 11 11 11 12 12 12 12 13 13 14 14 15 15 15 16 16 17 17 17 18 18 17 16 15 13 12 14 15 14 15 15 14 16 17 18 18 18 19 18 19
6 6 9 9 10 10 11 11 12 12 12 13 13 13 14 14 14 15 15 16 16 16 17 17 18 16 16 12 12 10 13 14 16 13 14 14 15 16 16 16 17 18 19 19 19
6 7 8 9 10 10 10 11 11 12 12 12 13 13 13 13 14 14 15 15 15 16 16 17 16 11 9 11 12 12 14 13 14 14 13 13 12 12 16 16 17 18 19 19 20
5 7 8 9 9 10 10 10 11 11 11 12 13 13 13 13 13 14 14 15 15 16 12 13 12 11 12 12 13 11 13 14 14 13 14 12 11 11 16 14 16 18 19 19 20
6 6 8 9 9 9 10 11 12 12 11 12 12 13 13 13 13 13 14 15 14 11 11 11 11 12 11 12 13 13 13 14 13 13 13 12 11 11 12 14 17 18 18 18 19
6 5 6 8 8 8 9 11 12 12 12 12 12 13 12 13 13 13 14 14 11 11 12 11 13 11 12 12 13 13 12 13 15 12 11 10 11 11 13 13 15 16 17 18 18
6 6 7 7 7 8 9 11 12 12 10 11 11 12 13 13 12 13 14 14 12 11 11 13 11 11 11 12 12 13 12 12 12 12 12 10 11 11 11 10 12 15 16 16 17
6 7 6 7 8 8 10 10 12 12 9 11 10 11 12 12 11 11 13 14 11 10 11 12 11 11 12 13 12 13 11 11 11 9 11 11 11 11 10 14 14 13 14 15 16
6 6 7 7 8 9 10 11 11 9 8 9 9 9 10 10 10 11 13 13 12 11 10 11 11 12 12 9 11 8 9 8 6 8 9 10 10 11 13 15 15 13 14 15 16
4 6 7 7 7 8 9 10 7 5 10 8 8 8 9 8 9 10 10 10 10 10 11 11 11 10 11 10 11 11 10 10 10 7 9 7 8 10 12 11 12 12 13 14 15
4 5 6 6 7 8 9 7 5 6 8 8 7 8 9 9 8 8 9 10 10 9 8 9 10 10 10 11 10 10 11 9 10 7 10 8 9 11 12 11 12 12 13 14 14
4 4 4 6 6 7 8 8 8 7 8 7 8 8 8 9 8 9 8 10 10 8 11 10 11 10 10 10 12 11 11 9 5 -4 4 8 9 12 9 9 11 12 13 13 14
3 3 4 4 5 7 7 8 8 8 8 9 8 8 7 7 8 8 7 9 9 9 11 11 10 8 9 11 10 11 8 10 6 6 7 8 9 10 12 10 10 10 12 13 13
1 2 3 4 4 4 7 8 6 7 9 9 8 7 8 8 8 8 8 9 9 8 10 9 10 8 9 9 8 9 10 8 8 7 7 5 9 7 9 9 9 10 13 13 13
1 1 2 3 3 0 4 5 7 7 8 8 9 8 7 7 7 7 9 10 10 9 9 10 8 7 8 8 8 9 9 9 8 7 4 6 8 8 8 9 11 12 12 13 12
1 1 1 2 3 3 3 5 6 7 7 7 8 9 8 8 8 8 7 8 9 9 9 8 7 3 7 9 7 8 8 8 7 6 6 6 7 7 7 8 11 11 12 13 13
1 1 1 1 2 3 4 5 5 5 6 7 8 8 8 8 8 7 7 7 8 9 10 10 7 8 10 10 7 8 8 8 10 7 9 8 9 8 7 7 9 10 11 11 11
0 -0 -0 0 1 3 4 5 5 5 5 5 6 7 8 7 7 7 7 6 7 7 7 8 6 8 7 7 8 7 7 6 8 11 10 10 9 10 9 6 9 9 10 10 10
-0 -1 -0 -0 0 2 3 4 4 4 5 5 5 6 7 8 8 7 7 7 8 7 7 6 5 6 5 6 7 7 7 6 7 6 7 6 7 7 10 10 8 8 9 9 8
-1 0 0 -1 -0 2 3 3 4 5 4 5 5 5 5 6 7 8 7 6 7 7 6 6 4 4 4 5 6 6 6 5 5 5 7 8 9 7 8 9 8 6 6 6 6
Height
1454 1456 1459 1461 1463 1468 1470 1473 1477 1482 1484 1488 1492 1493 1494 1495 1496 1494 1497 1501 1503 1506 1508 1510 1513 1515 1518 1520 1522 1522 1535 1544 1538 1541 1533 1532 1535 1536 1537 1538 1539 1540 1541 1541 1544
1450 1453 1456 1458 1462 1467 1468 1471 1476 1480 1484 1487 1489 1491 1492 1493 1494 1495 1496 1499 1502 1504 1506 1509 1511 1513 1517 1519 1522 1522 1537 1534 1528 1529 1531 1532 1534 1535 1536 1536 1538 1538 1539 1540 1542
1446 1451 1454 1457 1462 1465 1467 1470 1473 1478 1482 1485 1487 1489 1490 1491 1494 1491 1494 1497 1499 1502 1505 1509 1510 1512 1516 1519 1521 1523 1531 1527 1526 1527 1529 1531 1534 1535 1535 1538 1534 1535 1537 1539 1540
1443 1446 1449 1455 1459 1463 1467 1469 1472 1477 1480 1482 1485 1486 1488 1491 1494 1487 1493 1496 1499 1501 1505 1507 1509 1512 1515 1520 1521 1524 1525 1526 1527 1528 1529 1531 1533 1534 1535 1533 1533 1534 1536 1537 1538
1442 1445 1448 1454 1458 1461 1464 1468 1471 1474 1476 1480 1483 1485 1487 1490 1489 1486 1489 1495 1498 1500 1504 1505 1508 1511 1515 1519 1521 1523 1526 1527 1529 1529 1530 1531 1532 1533 1530 1532 1533 1533 1534 1536 1538
1440 1442 1445 1451 1456 1460 1463 1465 1469 1471 1475 1478 1482 1484 1487 1488 1485 1486 1491 1494 1496 1500 1504 1504 1508 1511 1514 1518 1521 1523 1525 1529 1529 1530 1531 1533 1533 1533 1529 1528 1530 1533 1533 1534 1537
1436 1439 1444 1450 1454 1458 1460 1465 1467 1470 1475 1478 1481 1483 1486 1484 1485 1486 1489 1492 1497 1500 1500 1504 1508 1511 1514 1519 1522 1524 1528 1529 1531 1531 1532 1533 1535 1531 1528 1529 1528 1530 1532 1533 1535
1434 1438 1443 1448 1452 1456 1460 1465 1467 1471 1474 1479 1482 1483 1484 1482 1484 1486 1490 1492 1496 1498 1501 1505 1508 1511 1514 1519 1522 1528 1532 1541 1531 1531 1533 1534 1541 1526 1526 1526 1528 1527 1530 1530 1531
1434 1437 1442 1448 1452 1456 1461 1464 1467 1470 1475 1477 1480 1482 1481 1481 1483 1486 1488 1491 1494 1500 1500 1505 1509 1512 1517 1522 1533 1538 1541 1540 1533 1533 1534 1535 1534 1526 1526 1526 1527 1526 1526 1527 1527
1432 1436 1441 1446 1451 1455 1461 1465 1466 1471 1475 1478 1481 1485 1480 1479 1482 1486 1488 1491 1494 1498 1501 1505 1509 1515 1522 1525 1541 1539 1535 1538 1535 1534 1535 1537 1535 1527 1526 1525 1523 1523 1523 1523 1523
1433 1435 1439 1444 1449 1454 1459 1463 1468 1474 1473 1471 1472 1473 1473 1478 1484 1485 1489 1492 1494 1496 1503 1506 1513 1520 1518 1518 1521 1529 1532 1535 1533 1532 1536 1538 1537 1528 1522 1523 1520 1519 1519 1519 1519
1430 1433 1439 1443 1449 1452 1456 1457 1459 1463 1470 1471 1471 1471 1473 1475 1481 1485 1487 1489 1492 1501 1503 1511 1516 1512 1514 1518 1522 1527 1532 1535 1534 1534 1535 1538 1536 1524 1519 1516 1514 1514 1514 1514 1514
1429 1435 1438 1442 1447 1451 1452 1456 1459 1461 1465 1469 1469 1469 1474 1479 1480 1482 1486 1489 1492 1501 1503 1508 1507 1508 1513 1521 1525 1529 1533 1535 1532 1536 1538 1540 1536 1526 1515 1514 1512 1513 1511 1511 1511
1428 1432 1437 1441 1447 1449 1453 1457 1460 1460 1470 1470 1470 1469 1474 1476 1480 1483 1486 1488 1492 1499 1504 1503 1507 1508 1514 1522 1523 1531 1526 1530 1534 1541 1550 1544 1555 1531 1521 1516 1514 1511 1509 1508 1509
1424 1430 1435 1440 1442 1446 1450 1455 1458 1460 1483 1465 1466 1467 1471 1475 1478 1482 1484 1487 1490 1493 1500 1505 1509 1509 1513 1514 1518 1524 1526 1530 1535 1547 1546 1547 1555 1533 1525 1517 1513 1513 1512 1511 1510
1421 1427 1433 1437 1441 1446 1448 1456 1459 1473 1480 1464 1463 1464 1470 1473 1478 1479 1483 1485 1489 1495 1500 1505 1504 1504 1507 1515 1516 1524 1531 1540 1547 1553 1560 1549 1550 1539 1525 1517 1513 1513 1513 1512 1511
1422 1424 1428 1433 1439 1442 1447 1453 1468 1480 1454 1461 1462 1464 1465 1474 1478 1477 1482 1487 1492 1504 1506 1504 1504 1505 1508 1517 1519 1523 1533 1555 1558 1567 1561 1556 1555 1534 1520 1516 1515 1514 1514 1513 1512
1420 1422 1426 1427 1436 1440 1445 1453 1470 1454 1452 1453 1456 1464 1466 1469 1475 1479 1483 1487 1486 1487 1505 1509 1516 1507 1506 1507 1515 1526 1525 1545 1555 1568 1553 1555 1551 1527 1516 1513 1514 1514 1514 1514 1514
1418 1423 1425 1430 1435 1437 1443 1449 1440 1443 1440 1449 1455 1462 1466 1466 1468 1476 1482 1478 1479 1482 1490 1502 1505 1504 1504 1504 1506 1521 1527 1528 1555 1600 1573 1549 1538 1518 1516 1514 1514 1514 1516 1515 1516
1419 1422 1426 1428 1431 1433 1439 1432 1435 1436 1438 1441 1449 1453 1462 1467 1470 1475 1480 1472 1474 1475 1478 1487 1504 1509 1507 1506 1506 1511 1519 1533 1547 1568 1565 1549 1542 1530 1519 1518 1516 1516 1517 1519 1519
1422 1423 1425 1427 1428 1435 1425 1427 1433 1434 1436 1439 1443 1452 1454 1460 1464 1470 1470 1469 1467 1475 1479 1483 1490 1512 1507 1507 1509 1516 1518 1523 1526 1538 1553 1566 1538 1522 1519 1518 1519 1518 1519 1521 1521
1423 1426 1424 1425 1431 1432 1432 1431 1429 1432 1436 1437 1437 1442 1449 1454 1462 1465 1465 1463 1462 1466 1477 1479 1491 1511 1507 1504 1505 1503 1507 1509 1527 1539 1550 1546 1536 1518 1516 1516 1516 1517 1519 1519 1521
1423 1424 1423 1423 1423 1427 1428 1428 1432 1433 1433 1436 1436 1437 1442 1447 1457 1459 1460 1460 1460 1463 1469 1475 1492 1525 1512 1507 1506 1505 1506 1508 1514 1525 1534 1542 1531 1515 1518 1517 1518 1518 1517 1517 1518
1422 1424 1424 1424 1423 1422 1425 1427 1431 1432 1432 1432 1434 1437 1440 1444 1447 1455 1458 1460 1460 1463 1464 1468 1483 1485 1485 1485 1495 1503 1503 1504 1504 1523 1516 1520 1520 1519 1518 1518 1518 1518 1518 1519 1519
1420 1421 1422 1424 1425 1423 1424 1426 1425 1428 1432 1434 1439 1436 1436 1443 1447 1450 1455 1460 1462 1463 1465 1469 1482 1481 1486 1485 1487 1491 1495 1501 1502 1496 1506 1501 1509 1505 1506 1512 1514 1516 1516 1517 1518
1420 1420 1423 1424 1423 1422 1423 1422 1423 1427 1430 1434 1437 1434 1435 1435 1437 1446 1448 1452 1453 1462 1465 1469 1485 1482 1492 1489 1488 1489 1492 1496 1496 1501 1502 1505 1504 1500 1503 1508 1511 1513 1514 1516 1517
1417 1419 1423 1424 1422 1422 1418 1420 1419 1424 1430 1431 1435 1436 1438 1437 1440 1445 1447 1449 1451 1457 1463 1469 1479 1487 1497 1493 1491 1496 1484 1491 1492 1494 1493 1498 1489 1494 1499 1501 1505 1508 1511 1513 1514
Wind_Speed
20 22 23 24 24 24 24 22 22 24 24 26 21 18 15 14 15 15 20 17 18 15 17 13 14 13 11 7 4 3 4 2 7 6 3 8 4 5 4 6 6 7 3 3 21
22 22 24 23 23 23 22 23 23 22 21 20 18 16 14 13 14 19 17 18 18 16 17 15 16 14 7 6 3 4 4 8 5 5 4 10 4 11 5 5 6 7 7 5 21
23 23 24 24 23 22 22 21 21 19 19 18 17 15 14 12 10 13 19 17 16 17 15 15 15 12 5 5 3 3 4 5 3 3 7 10 3 6 6 3 10 14 12 10 19
22 23 23 23 21 21 21 20 20 20 18 17 15 14 12 14 7 10 20 18 15 18 16 15 17 9 5 5 3 4 2 4 5 4 5 7 4 4 10 5 3 12 10 13 20
21 25 23 23 22 20 20 20 19 18 17 16 16 14 14 14 6 9 18 19 16 18 17 16 18 8 7 6 5 3 3 3 3 3 4 5 2 5 10 14 7 6 12 15 17
23 23 24 23 22 21 20 18 18 16 16 14 14 14 15 6 8 10 18 19 17 19 18 14 11 5 8 5 4 5 5 4 2 3 2 1 1 1 3 9 15 11 10 16 19
22 22 25 24 23 21 19 18 16 15 14 14 13 13 11 10 9 12 16 17 18 18 19 13 12 6 12 6 6 9 4 2 1 2 1 1 4 8 8 5 10 13 12 16 20
21 22 25 23 22 20 19 17 16 15 14 13 12 14 5 10 11 12 17 18 16 15 15 12 13 10 4 13 6 5 5 3 2 4 1 3 8 2 2 7 10 9 13 18 21
22 23 24 24 22 20 18 16 15 13 12 11 10 9 4 10 13 13 16 17 16 15 15 13 12 6 6 6 4 7 3 3 2 3 2 3 6 3 3 2 3 6 10 16 18
20 24 23 23 22 19 17 16 14 13 11 10 8 6 7 8 15 15 16 17 14 17 14 8 4 4 3 3 6 5 3 3 3 1 1 0 10 7 12 13 17 15 14 17 18
20 23 22 22 21 22 20 18 14 5 17 5 8 3 9 15 16 16 18 19 19 11 5 2 5 7 9 5 4 6 5 3 1 1 3 5 7 12 23 14 20 25 22 22 23
18 20 23 22 22 22 23 15 15 7 6 6 4 5 11 14 7 17 21 8 8 5 5 5 5 5 7 6 5 5 4 2 1 2 2 4 10 11 16 15 21 24 25 20 16
19 19 19 21 20 21 25 17 18 15 5 7 5 8 10 13 5 18 19 9 6 6 4 7 2 11 6 4 6 3 6 4 3 1 3 5 8 6 4 5 9 8 11 13 13
22 20 18 18 16 21 23 19 17 10 4 4 6 6 11 9 3 17 17 7 2 6 7 4 3 8 7 4 5 5 6 5 6 4 3 3 5 6 5 9 6 11 9 8 7
23 22 21 24 8 21 21 20 17 8 3 5 5 9 13 7 10 9 11 3 7 6 6 6 7 7 5 5 6 3 4 5 4 4 3 3 2 7 4 5 5 9 13 12 12
16 23 25 25 14 21 20 20 15 4 7 4 4 6 7 3 2 7 5 4 7 5 5 3 2 3 4 4 2 9 7 8 5 3 1 3 4 5 3 2 3 5 9 9 9
11 18 20 22 20 22 21 20 4 5 1 6 5 5 4 5 4 3 7 5 6 6 3 2 1 1 4 7 5 4 6 2 2 2 5 2 2 8 4 5 3 5 7 8 9
8 13 18 14 24 23 28 3 4 6 6 3 5 6 7 6 2 2 7 7 4 5 5 6 3 8 5 5 8 6 6 5 7 4 2 2 5 5 2 8 0 4 8 11 15
8 11 11 19 23 27 21 10 9 6 8 8 5 5 3 2 5 5 7 9 8 8 7 5 3 1 2 3 5 5 4 5 7 3 3 3 6 4 5 6 9 13 17 21 24
7 9 11 11 9 24 9 12 6 3 5 5 6 5 7 8 5 5 9 5 6 9 2 7 4 2 1 2 4 3 8 3 3 3 3 3 4 5 1 4 4 9 16 18 20
4 4 7 13 10 1 11 7 4 4 4 5 5 6 6 8 7 7 9 2 6 8 3 6 4 1 3 5 8 3 3 4 5 4 5 2 5 6 8 6 7 9 9 12 14
5 2 8 13 4 1 2 4 2 4 4 3 3 4 8 9 7 6 12 4 13 16 9 5 5 4 6 2 1 1 6 6 5 4 1 3 5 3 8 8 11 10 11 11 7
4 1 5 11 3 3 3 3 1 4 4 5 4 2 3 7 4 6 6 2 11 9 11 7 2 3 4 3 3 4 4 4 5 3 7 6 5 3 6 8 7 8 6 5 2
4 2 2 5 3 3 4 6 7 4 2 2 3 2 4 4 3 7 5 1 6 5 8 10 3 8 11 4 7 6 6 6 6 3 5 6 7 7 8 7 3 3 3 4 6
3 1 1 3 4 2 8 7 6 7 3 4 2 4 5 5 3 5 3 4 4 3 3 5 6 3 3 3 5 4 8 10 9 13 8 7 10 17 16 9 5 4 8 9 5
5 3 2 1 2 6 4 8 9 2 7 4 3 3 2 5 4 6 7 4 5 3 3 2 3 3 2 3 3 3 6 8 6 4 2 3 5 5 7 9 8 10 10 7 4
11 8 3 1 1 4 5 3 10 9 7 5 8 4 5 5 8 4 9 10 6 5 4 4 5 3 4 4 4 5 11 9 5 4 8 11 8 8 4 7 8 11 10 9 6
Wind_Direction
208 206 200 199 196 198 191 189 194 196 200 209 212 211 209 213 219 213 215 214 207 195 196 190 180 170 166 163 170 143 65 160 186 150 222 161 161 180 181 160 176 200 228 172 175
209 202 201 199 198 198 194 189 194 197 204 206 207 205 205 205 216 222 208 212 203 194 194 190 177 163 147 150 157 94 109 207 186 188 189 171 181 172 169 175 208 224 219 204 178
208 203 201 200 198 196 195 192 193 196 203 204 203 199 200 195 203 229 206 199 197 192 186 188 176 159 126 152 148 123 170 186 181 175 168 156 175 172 163 237 213 217 213 203 186
209 203 201 199 200 195 195 194 192 194 197 201 199 196 192 181 179 198 197 193 192 185 183 174 167 145 114 149 142 109 96 151 147 141 135 148 157 203 211 224 283 239 227 215 202
206 202 198 196 198 196 198 193 194 191 198 194 201 190 185 197 239 185 183 191 188 182 182 171 167 142 138 149 118 107 139 130 137 106 105 152 202 232 251 241 254 258 220 224 218
202 200 196 195 194 197 193 194 195 189 195 196 200 188 185 208 227 182 183 188 186 182 180 170 176 158 117 143 131 138 114 121 134 102 82 211 253 240 265 244 227 239 236 224 227
200 196 193 193 193 193 192 192 192 187 191 196 203 191 204 213 200 180 180 183 186 185 174 174 170 164 141 117 117 116 85 27 127 136 47 153 281 236 236 286 223 229 236 228 228
198 196 190 192 193 191 190 188 184 184 189 188 196 185 230 213 194 175 177 174 176 177 175 169 168 137 116 126 53 76 59 118 299 144 154 115 272 292 238 250 237 231 246 242 235
202 195 188 189 190 188 185 186 179 180 183 182 189 171 233 186 185 177 172 171 162 167 158 153 157 111 118 96 52 11 170 183 311 200 115 145 266 285 173 128 258 257 255 246 249
204 187 187 187 186 182 178 175 170 177 176 164 181 191 214 190 179 175 167 165 148 154 141 150 114 83 51 95 191 177 154 222 208 179 74 96 269 283 272 285 284 276 264 257 253
199 182 183 185 182 177 174 159 145 161 184 200 199 183 155 159 167 169 164 162 149 147 132 85 100 188 190 153 117 128 120 159 201 96 176 234 266 281 285 279 270 273 273 271 265
184 182 182 181 183 178 175 168 174 159 164 218 187 165 156 154 146 168 161 153 140 129 127 55 206 194 121 125 113 121 124 172 52 58 130 357 281 263 273 264 268 277 284 285 284
178 181 178 177 181 184 184 183 174 157 127 200 185 154 161 171 151 171 176 150 116 128 172 147 205 142 119 130 127 123 152 179 145 74 60 344 300 322 309 294 291 296 297 301 308
179 179 174 170 184 188 190 181 180 165 97 214 206 176 167 165 119 173 175 163 117 151 150 147 120 139 121 167 135 171 190 142 127 92 220 22 279 307 317 308 330 351 7 34 52
180 180 179 180 187 189 190 185 171 165 190 165 162 164 159 163 139 173 171 143 149 141 125 203 165 142 132 184 159 176 113 113 88 95 77 322 79 272 342 331 359 30 43 54 57
167 188 185 187 175 183 180 178 158 77 234 160 130 157 118 115 101 129 152 120 113 96 35 131 115 105 140 72 79 150 77 49 58 85 347 260 150 282 228 191 306 356 12 30 48
176 171 186 193 191 177 171 159 87 167 214 183 173 171 116 147 115 135 158 162 154 117 162 44 84 51 131 86 43 84 91 22 359 15 218 351 95 245 254 260 252 331 28 38 44
202 186 198 168 193 180 168 105 149 197 188 125 121 117 162 152 104 124 128 175 245 94 130 145 205 171 185 158 162 187 159 157 193 189 230 72 231 249 189 326 231 87 77 72 75
198 214 194 158 191 176 168 191 202 194 149 136 78 118 164 207 126 142 200 198 189 185 147 135 218 20 60 129 147 184 190 157 106 23 58 218 284 316 21 43 84 86 94 91 86
212 200 214 208 187 173 186 204 173 144 120 147 151 162 168 175 134 170 165 193 200 183 197 197 115 3 32 101 56 159 162 85 9 131 229 284 278 227 137 108 55 76 99 96 85
156 166 202 181 159 182 201 211 138 195 150 151 155 145 166 169 158 188 195 270 190 176 183 145 109 347 122 219 162 132 180 59 114 137 163 165 254 219 151 163 119 95 119 105 83
162 178 185 171 147 201 185 202 142 159 175 199 134 113 164 161 152 185 201 232 179 151 171 189 112 145 202 283 273 178 178 149 136 215 243 141 261 205 170 156 111 85 86 96 88
158 133 186 186 174 172 180 170 293 162 170 169 170 177 179 157 148 180 179 236 168 158 164 185 190 82 11 349 353 198 190 127 115 93 193 140 252 75 136 118 108 96 76 80 71
153 147 83 228 286 151 149 185 174 229 129 132 147 116 129 142 33 164 142 107 166 175 178 148 140 176 203 181 134 179 182 177 150 160 180 217 143 218 220 192 166 124 134 147 127
183 223 208 177 218 210 168 183 158 168 176 171 206 217 185 129 109 144 125 134 79 127 89 137 166 133 32 121 127 157 171 177 191 207 189 191 179 200 207 182 165 137 152 147 132
179 161 173 185 304 175 213 195 183 153 161 179 179 207 154 146 169 184 139 172 164 125 109 37 152 120 95 75 79 159 199 193 197 143 139 157 236 195 153 187 157 155 158 157 138
191 165 165 357 128 205 198 176 196 151 192 176 184 169 261 204 204 153 95 78 111 129 123 110 132 114 201 121 105 308 210 180 181 181 166 213 211 156 161 161 153 149 150 139 122